Carlsbad, NM

12:55 AM MST on December 11, 2017 (GMT -0700)
Cavern City

Weather History for KCNM - May, 2013

Change the Weather History Date:

Monday, May 20, 2013

  Actual Average Record
Temperature  
Mean Temperature 78 °F -  
Max Temperature 96 °F 87 °F 102 °F (1969)
Min Temperature 60 °F 57 °F 48 °F (1983)
Cooling Degree Days 12    
Growing Degree Days 28 (Base 50)    
Moisture  
Dew Point 18 °F    
Average Humidity 12    
Maximum Humidity 20    
Minimum Humidity 4    
Precipitation  
Precipitation 0.00 in - - ()
Sea Level Pressure  
Sea Level Pressure 29.67 in    
Wind  
Wind Speed 11 mph (West)    
Max Wind Speed 21 mph    
Max Gust Speed 31 mph    
Visibility 10 miles    
Events      
Averages and records for this station are not official NWS values.
T = Trace of Precipitation, MM = Missing Value Source: NWS Daily Summary

Daily Weather History Graph

Daily Weather History Graph

Search for Another Location

Airport or City:

Trip Planner

Search our weather history database for the weather conditions in past years. The results will help you decide how hot, cold, wet, or windy it might be!

Date:

Astronomy

May. 20, 2013 Rise Set
Actual Time 5:55 AM MDT 7:51 PM MDT
Civil Twilight 5:28 AM MDT 8:19 PM MDT
Nautical Twilight 4:55 AM MDT 8:52 PM MDT
Astronomical Twilight 4:20 AM MDT 9:27 PM MDT
Moon 3:16 PM MDT (5/20) 2:35 AM MDT (5/20)
Length of Visible Light 14h 50m
Length of Day
13h 56m
Waxing Gibbous, 75% of the Moon is Illuminated
May 20
Waxing Gibbous
May 24
Full
May 31
Last Quarter
Jun 8
New
Jun 16
First Quarter

Hourly Weather History & Observations

Time (MDT) Temp. Dew Point Humidity Pressure Visibility Wind Dir Wind Speed Gust Speed Precip Events Conditions
12:53 AM 69.1 °F 15.1 °F 13% 29.62 in 10.0 mi WSW 10.4 mph - N/A   Clear
1:53 AM 69.8 °F 15.8 °F 13% 29.81 in 10.0 mi West 9.2 mph - N/A   Clear
2:53 AM 66.9 °F 18.0 °F 15% 29.64 in 10.0 mi WNW 10.4 mph - N/A   Clear
3:53 AM 63.0 °F 19.0 °F 18% 29.65 in 10.0 mi WNW 10.4 mph - N/A   Clear
4:53 AM 60.8 °F 19.4 °F 20% 29.83 in 10.0 mi West 4.6 mph - N/A   Clear
5:53 AM 62.6 °F 21.2 °F 20% 29.86 in 10.0 mi NW 9.2 mph - N/A   Clear
6:53 AM 64.9 °F 23.0 °F 20% 29.72 in 10.0 mi North 5.8 mph - N/A   Clear
7:53 AM 71.1 °F 26.1 °F 19% 29.74 in 10.0 mi NNW 17.3 mph - N/A   Clear
8:53 AM 73.9 °F 28.0 °F 18% 29.76 in 10.0 mi NNW 16.1 mph 21.9 mph N/A   Clear
9:53 AM 78.1 °F 30.9 °F 18% 29.76 in 10.0 mi North 12.7 mph - N/A   Clear
10:53 AM 80.1 °F 27.0 °F 14% 29.75 in 10.0 mi Variable 4.6 mph - N/A   Clear
11:53 AM 84.0 °F 25.0 °F 12% 29.73 in 10.0 mi North 4.6 mph - N/A   Clear
12:53 PM 84.9 °F 23.0 °F 10% 29.69 in 10.0 mi West 5.8 mph - N/A   Clear
1:53 PM 93.0 °F 12.9 °F 5% 29.63 in 10.0 mi West 16.1 mph 31.1 mph N/A   Clear
2:53 PM 93.0 °F 15.1 °F 6% 29.61 in 10.0 mi SSW 11.5 mph 27.6 mph N/A   Clear
3:53 PM 95.0 °F 10.9 °F 4% 29.58 in 10.0 mi West 20.7 mph 28.8 mph N/A   Clear
4:53 PM 93.0 °F 10.9 °F 5% 29.56 in 10.0 mi SW 15.0 mph 29.9 mph N/A   Clear
5:53 PM 93.0 °F 10.9 °F 5% 29.55 in 10.0 mi WSW 17.3 mph 29.9 mph N/A   Clear
6:53 PM 91.0 °F 14.0 °F 6% 29.54 in 10.0 mi WSW 18.4 mph 24.2 mph N/A   Clear
7:53 PM 87.1 °F 15.1 °F 7% 29.55 in 10.0 mi SW 13.8 mph - N/A   Clear
8:53 PM 82.0 °F 15.1 °F 8% 29.57 in 10.0 mi SSW 9.2 mph - N/A   Clear
9:53 PM 73.9 °F 16.0 °F 11% 29.60 in 10.0 mi WNW 9.2 mph - N/A   Clear
10:53 PM 73.0 °F 16.0 °F 11% 29.62 in 10.0 mi WSW 6.9 mph - N/A   Clear
11:53 PM 73.0 °F 15.1 °F 11% 29.61 in 10.0 mi WSW 11.5 mph - N/A   Clear